Montgomery, AL

5:33 AM CST on December 18, 2017 (GMT -0600)
Montgomery Regional

Weather History for KMGM - September, 2012

Change the Weather History Date:

Sunday, September 2, 2012

  Actual Average Record
Temperature  
Mean Temperature 83 °F 80 °F  
Max Temperature 92 °F 91 °F 98 °F (1907)
Min Temperature 73 °F 69 °F 57 °F (1887)
Degree Days  
Heating Degree Days 0 0  
Month to date heating degree days 0 0  
Since 1 July heating degree days 0 0  
Cooling Degree Days 18 15  
Month to date cooling degree days 37 30  
Year to date cooling degree days 2203 1819  
Growing Degree Days 32 (Base 50)    
Moisture  
Dew Point 73 °F    
Average Humidity 73    
Maximum Humidity 93    
Minimum Humidity 52    
Precipitation  
Precipitation 0.00 in 0.14 in 2.64 in (1996)
Month to date precipitation 0.00 0.27  
Year to date precipitation 29.01 36.98  
Sea Level Pressure  
Sea Level Pressure 30.02 in    
Wind  
Wind Speed 5 mph (SW)    
Max Wind Speed 13 mph    
Max Gust Speed 17 mph    
Visibility 10 miles    
Events      
T = Trace of Precipitation, MM = Missing Value Source: NWS Daily Summary

Daily Weather History Graph

Daily Weather History Graph

Search for Another Location

Airport or City:

Trip Planner

Search our weather history database for the weather conditions in past years. The results will help you decide how hot, cold, wet, or windy it might be!

Date:

Astronomy

Sep. 02, 2012 Rise Set
Actual Time 6:21 AM CDT 7:07 PM CDT
Civil Twilight 5:56 AM CDT 7:32 PM CDT
Nautical Twilight 5:27 AM CDT 8:02 PM CDT
Astronomical Twilight 4:57 AM CDT 8:32 PM CDT
Moon 8:08 PM CDT (9/2) 8:18 AM CDT (9/2)
Length of Visible Light 13h 36m
Length of Day
12h 46m
Waning Gibbous, 95% of the Moon is Illuminated
Sep 2
Waning Gibbous
Sep 8
Last Quarter
Sep 15
New
Sep 22
First Quarter
Sep 29
Full

Hourly Weather History & Observations

Time (CDT) Temp. Heat Index Dew Point Humidity Pressure Visibility Wind Dir Wind Speed Gust Speed Precip Events Conditions
12:53 AM 79.0 °F - 72.0 °F 79% 30.07 in 10.0 mi SSW 5.8 mph - N/A   Clear
1:53 AM 78.1 °F - 72.0 °F 81% 30.05 in 10.0 mi SSW 3.5 mph - N/A   Clear
2:53 AM 77.0 °F - 72.0 °F 84% 30.05 in 10.0 mi Calm Calm - N/A   Clear
3:53 AM 75.0 °F - 71.1 °F 87% 30.04 in 10.0 mi Calm Calm - N/A   Clear
4:53 AM 73.0 °F - 71.1 °F 93% 30.04 in 9.0 mi Calm Calm - N/A   Clear
5:53 AM 73.0 °F - 71.1 °F 93% 30.06 in 9.0 mi Calm Calm - N/A   Clear
6:19 AM 73.4 °F - 71.6 °F 94% 30.07 in 8.0 mi SSW 3.5 mph - N/A   Overcast
6:53 AM 75.0 °F - 72.0 °F 90% 30.07 in 7.0 mi Calm Calm - N/A   Overcast
7:53 AM 77.0 °F - 73.4 °F 89% 30.08 in 3.0 mi WSW 5.8 mph - N/A   Overcast
8:53 AM 79.0 °F - 73.9 °F 84% 30.08 in 10.0 mi SW 6.9 mph - N/A   Overcast
9:53 AM 82.0 °F 88.6 °F 75.0 °F 79% 30.09 in 10.0 mi West 5.8 mph - N/A   Overcast
10:30 AM 84.2 °F 92.3 °F 75.2 °F 74% 30.09 in 10.0 mi SW 6.9 mph - N/A   Mostly Cloudy
10:53 AM 84.9 °F 93.3 °F 75.0 °F 72% 30.08 in 10.0 mi SSW 8.1 mph - N/A   Mostly Cloudy
11:09 AM 86.0 °F 95.1 °F 75.2 °F 70% 30.08 in 10.0 mi WSW 6.9 mph - N/A   Scattered Clouds
11:53 AM 89.1 °F 100.2 °F 75.9 °F 65% 30.06 in 10.0 mi West 6.9 mph - N/A   Mostly Cloudy
12:07 PM 86.0 °F 95.1 °F 75.2 °F 70% 30.06 in 10.0 mi West 5.8 mph - N/A   Mostly Cloudy
12:53 PM 91.0 °F 99.3 °F 73.0 °F 55% 30.03 in 10.0 mi WSW 9.2 mph - N/A   Partly Cloudy
1:53 PM 91.4 °F 100.1 °F 73.4 °F 55% 30.01 in 10.0 mi SW 11.5 mph - N/A   Mostly Cloudy
2:53 PM 91.9 °F 99.5 °F 72.0 °F 52% 29.97 in 10.0 mi WSW 6.9 mph - N/A   Partly Cloudy
3:53 PM 90.0 °F 96.9 °F 72.0 °F 55% 29.97 in 10.0 mi SW 8.1 mph - N/A   Mostly Cloudy
4:53 PM 89.1 °F 98.0 °F 73.9 °F 61% 29.95 in 10.0 mi SSW 6.9 mph - N/A   Mostly Cloudy
5:53 PM 89.1 °F 97.0 °F 73.0 °F 59% 29.94 in 10.0 mi SW 5.8 mph - N/A   Clear
6:53 PM 86.0 °F 93.0 °F 73.0 °F 65% 29.95 in 10.0 mi SSW 3.5 mph - N/A   Scattered Clouds
7:53 PM 81.0 °F 86.7 °F 75.0 °F 82% 29.96 in 10.0 mi South 3.5 mph - N/A   Clear
8:53 PM 82.0 °F 87.9 °F 73.9 °F 76% 29.97 in 10.0 mi South 3.5 mph - N/A   Clear
9:53 PM 80.1 °F 84.5 °F 73.9 °F 81% 29.96 in 10.0 mi South 4.6 mph - N/A   Clear
10:53 PM 80.1 °F 84.2 °F 73.0 °F 79% 29.97 in 10.0 mi SSW 4.6 mph - N/A   Clear
11:53 PM 80.1 °F 84.5 °F 73.9 °F 81% 29.97 in 10.0 mi SSW 4.6 mph - N/A   Clear